Location: Newark
(48.1500°N, 13.1167°E)
Time: 03:55:12
(UTC+00:00)

N. Korean satellite - Pass Details

Date: 06 October 2021
Orbit: 450 x 495 km, 97.3° (Epoch: 15 October)

Event Time Altitude Azimuth Distance (km) Brightness Sun altitude
Rises 04:36:15 0° 11° (N) 2,563 10.4 -7.1°
Reaches altitude 10° 04:38:19 10° 11° (N) 1,684 9.4 -6.8°
Maximum altitude 04:41:57 80° 284° (WNW) 505 6.5 -6.2°
Drops below altitude 10° 04:45:35 10° 198° (SSW) 1,687 9.2 -5.6°
Sets 04:47:39 0° 197° (SSW) 2,567 10.1 -5.2°
